OBJECT J, 59781

Orbit data source: Space-Track

You're viewing an Uncataloged Satellite

Recently launched and/or uncataloged satellites may have evolving metadata. Metadata may include but not limited to: Owner, Maufacturer, Bus, Motor, and Mission.

OBJECT J, 59781 is a satellite owned by Byuro 1440 (CIS) in SSO that was launched on Thu, 16 May 2024 UTC via a SOYUZ-2-1B launch vehicle from the Plesetsk Missile And Space Complex (PKMTR). Unknown objects in Earth's orbit typically refer to objects detected orbiting the Earth but have not yet been identified or cataloged. These objects could be anything from previously untracked satellites, spent rocket stages, debris from satellite collisions, or even natural meteoroids temporarily captured by Earth's gravity.

Loading next visibility...
Identifier
59781, 2024-092J
Orbit
SSO
Last TLE update
8 hours ago
Origin
Manufacturer
Byuro 1440
Mission
Operational spacecraft
Bus & Motor
RASSVET-2, Unknown motor
Mass
~200 kg wet, ~200 kg dry
Launch date (UTC)
2024-05-16 (1 year ago)
Launch vehicle
SOYUZ-2-1B
Launch site
Plesetsk Missile And Space Complex (PKMTR)
Object type
Unknown
Shape & HBR
Unknown
Radar Cross Section
Medium (>0.1 m² and <1 m²)

Expand to show TLE details & history

TLE from 8 hours ago
0 OBJECT J
1 59781U 24092J   25128.93426357  .00000275  00000-0  11978-3 0  9997
2 59781  98.6320 244.3749 0011361 323.3565  36.6840 14.31597641 51051
Epoch: 2025-05-08T22:25Z
Definitive object data (Epoch: 2025-05-08T22:25:20.372Z)
Latitude
-0.00003°
Longitude
41.04238°
Altitude
782.803 km
Speed
7.466 km/s
True Right ascension
16h 17m 29s
True Declination
0° 00' 00"
Sunlit
Object was in full shadow at TLE epoch
Visualization TLE readout
Latitude
-15.46724°
Longitude
43.78142°
Altitude
785.068 km
Speed
7.464 km/s
Apparent Right ascension
19h 05m 23s
Apparent Declination
-62° 19' 56"
Sunlit
Object is in full shadow
Visualization observer readout
Local Sidereal Time
14:53:06
Azimuth
153.048° SSE
Elevation
-24.018°
Doppler factor
1
Orbital elements
Apogee altitude
791.671 km
Perigee altitude
775.399 km
Semi-major axis
7,161.672 km
Eccentricity
0.0011361
Inclination
98.632°
RAAN
244.3749°
Arg. of periapsis
323.3565°
True anomaly
36.76186°
Mean anomaly
36.684°
Eccentric anomaly
36.72292°
Mean motion
3.58114 °/min
BSTAR
0.00011978
Orbital period
100.53 mins
Loading maneuver chart data...
Loading SW <> Apogee altitude chart data...
Loading historical data...
Loading historical data...
Loading historical data...
Loading historical data...
Loading historical data...
Loading historical data...
Loading historical data...

OBJECT J Visibility forecast

Observer location: undefined°, undefined°

Span
Click to sort rows by Start time (UTC) header in descending order
Start Az.
Max El. time (UTC)
Max El. Az.
Max El.
End time (UTC)
End Az.
8 mins2025-05-09 06:56:13.136Z133.376° SE2025-05-09 07:00:13.136Z76.376° E31.332°2025-05-09 07:04:13.136Z8.204° NNE
6 mins2025-05-09 08:37:13.136Z223.143° SW2025-05-09 08:40:13.136Z270.178° WNW22.705°2025-05-09 08:43:13.136Z312.41° NW
8 mins2025-05-09 20:49:13.136Z4.124° NNE2025-05-09 20:52:13.136Z310.011° NW42.51°2025-05-09 20:57:13.136Z205.231° SW
5 mins2025-05-10 06:28:13.136Z92.63° ESE2025-05-10 06:30:13.136Z62.919° ENE19.385°2025-05-10 06:33:13.136Z23.083° NE
|